Погода в Нахимовском

Россия / Смоленская область     55°31′39″N   33°45′50″E
темп.,
°C
ветер,
м/с
пор.,
м/с
влажн.,
%
обл.,
%
осадки,
мм/ч
давл.,
гПа
погр.,
м
7 марта, вс
вс700:00−7юз71480100 0.0 1012594
03:00−6юз91593100 0.4 1007880
06:00−4юз101694100 1.1 10021025
09:00−3юз101794100 3.0 9971082
12:00−3сз111394100 1.9 996948
15:00−3зюз597099 2.7 9951449
18:00−5з7129570 0.9 996915
21:00−7з5119183 1.1 997410
8 марта, пн
пн800:00−7з5128997 0.4 997396
03:00−7з5129298 0.5 998511
06:00−7зсз5109299 0.4 998424
09:00−10сз6128864 0.4 1001591
12:00−7сз6985100 0.1 10031032
15:00−6сз6981100 0.2 10061114
18:00−8сз4989100 0.1 1009366
21:00−12ссз469499 0.1 1012107
9 марта, вт
вт900:00−14ссз349493 0.0 101476
03:00−16ссз349774 0.0 101535
06:00−18ссз349723 0.0 101736
09:00−16ссз359511 0.0 1019194
12:00−12ссз358254 0.0 1019593
15:00−10сз457661 0.0 1020884
18:00−12сз338599 0.0 102038
21:00−15сз229078 0.0 102320
10 марта, ср
ср1000:00−17сз009633 0.0 102320
03:00−15юв229463 0.0 102325
06:00−14ююв3596100 0.4 1022188
09:00−12юв4795100 1.4 1022327
12:00−9вюв3592100 1.6 1022463
15:00−9в5789100 1.9 1021498
18:00−11в599299 0.0 1021329
21:00−13вюв499499 0.1 1022247
11 марта, чт
чт1100:00−13вюв41095100 0.1 1021273
03:00−13вюв3796100 0.9 1020248
06:00−14вюв339695 0.3 101837
09:00−9юв239697 0.6 1017123
12:00−3юз3595100 0.4 1016415
15:00−2юз5783100 0.9 1014796
18:00−3ю51183100 0.0 1013571
21:00−4ю61486100 0.0 1011630